| time (UTC) | temp C | wind direction | speed KPH | gust KPH | rain 1hr cm | rain 24hr cm | rain mn cm | humidity % | barometer mb |
| 20260502233748 | 17 | 231 | 3.2 | 11.3 | 0.00 | 0.00 | 0.00 | 41 | 1010.3 |
| 20260502233243 | 17 | 205 | 4.8 | 11.3 | 0.00 | 0.00 | 0.00 | 41 | 1010.3 |
| 20260502233008 | 17 | 164 | 4.8 | 12.9 | 0.00 | 0.00 | 0.00 | 40 | 1010.4 |
| 20260502232231 | 17 | 213 | 3.2 | 12.9 | 0.00 | 0.00 | 0.00 | 39 | 1010.3 |
| 20260502231725 | 18 | 203 | 1.6 | 11.3 | 0.00 | 0.00 | 0.00 | 39 | 1010.3 |
| 20260502231449 | 18 | 287 | 1.6 | 6.4 | 0.00 | 0.00 | 0.00 | 39 | 1010.4 |
| 20260502230713 | 18 | 201 | 1.6 | 6.4 | 0.00 | 0.00 | 0.00 | 40 | 1010.5 |
| 20260502230215 | 18 | 221 | 1.6 | 6.4 | 0.00 | 0.00 | 0.00 | 39 | 1010.6 |
| 20260502225701 | 17 | 201 | 0.0 | 4.8 | 0.00 | 0.00 | 0.00 | 40 | 1010.5 |
| 20260502225155 | 17 | 202 | 0.0 | 4.8 | 0.00 | 0.00 | 0.00 | 38 | 1010.6 |
| 20260502224648 | 17 | 135 | 0.0 | 1.6 | 0.00 | 0.00 | 0.00 | 39 | 1010.7 |
| 20260502224143 | 17 | 228 | 0.0 | 1.6 | 0.00 | 0.00 | 0.00 | 40 | 1010.7 |
| 20260502223637 | 17 | 205 | 0.0 | 3.2 | 0.00 | 0.00 | 0.00 | 38 | 1010.8 |
| 20260502223131 | 17 | 149 | 0.0 | 3.2 | 0.00 | 0.00 | 0.00 | 41 | 1010.9 |
| 20260502222625 | 17 | 207 | 1.6 | 6.4 | 0.00 | 0.00 | 0.00 | 38 | 1010.9 |
| 20260502222119 | 17 | 186 | 3.2 | 8.0 | 0.00 | 0.00 | 0.00 | 38 | 1011.0 |
| 20260502221612 | 17 | 203 | 3.2 | 8.0 | 0.00 | 0.00 | 0.00 | 38 | 1011.0 |
| 20260502221108 | 17 | 156 | 4.8 | 11.3 | 0.00 | 0.00 | 0.00 | 39 | 1011.0 |
| 20260502220602 | 17 | 176 | 4.8 | 11.3 | 0.00 | 0.00 | 0.00 | 39 | 1011.0 |
| 20260502220056 | 17 | 188 | 4.8 | 9.7 | 0.00 | 0.00 | 0.00 | 39 | 1011.0 |
| 20260502220051 | 17 | 194 | 4.8 | 12.9 | 0.00 | 0.00 | 0.00 | 38 | 1011.1 |
| 20260502215044 | 18 | 135 | 6.4 | 12.9 | 0.00 | 0.00 | 0.00 | 38 | 1011.1 |
| 20260502215039 | 18 | 252 | 6.4 | 12.9 | 0.00 | 0.00 | 0.00 | 37 | 1011.2 |
| 20260502214031 | 18 | 104 | 6.4 | 14.5 | 0.00 | 0.00 | 0.00 | 38 | 1011.3 |
| 20260502213524 | 18 | 152 | 6.4 | 14.5 | 0.00 | 0.00 | 0.00 | 38 | 1011.3 |
| 20260502213019 | 18 | 201 | 4.8 | 11.3 | 0.00 | 0.00 | 0.00 | 36 | 1011.4 |
| 20260502212744 | 18 | 225 | 4.8 | 14.5 | 0.00 | 0.00 | 0.00 | 38 | 1011.5 |
| 20260502212006 | 18 | 226 | 6.4 | 17.7 | 0.00 | 0.00 | 0.00 | 38 | 1011.6 |
| 20260502211731 | 18 | 194 | 8.0 | 17.7 | 0.00 | 0.00 | 0.00 | 37 | 1011.7 |
| 20260502210954 | 19 | 233 | 8.0 | 17.7 | 0.00 | 0.00 | 0.00 | 35 | 1011.8 |
| 20260502210448 | 20 | 189 | 6.4 | 17.7 | 0.00 | 0.00 | 0.00 | 36 | 1011.8 |
| 20260502205942 | 20 | 192 | 4.8 | 14.5 | 0.00 | 0.00 | 0.00 | 35 | 1011.8 |
| 20260502205438 | 20 | 195 | 6.4 | 14.5 | 0.00 | 0.00 | 0.00 | 35 | 1012.0 |
| 20260502204931 | 20 | 245 | 8.0 | 14.5 | 0.00 | 0.00 | 0.00 | 33 | 1012.0 |
| 20260502204425 | 20 | 191 | 6.4 | 14.5 | 0.00 | 0.00 | 0.00 | 34 | 1012.1 |
| 20260502203918 | 20 | 195 | 4.8 | 12.9 | 0.00 | 0.00 | 0.00 | 34 | 1012.3 |
| 20260502203413 | 19 | 211 | 6.4 | 12.9 | 0.00 | 0.00 | 0.00 | 38 | 1012.5 |
| 20260502203137 | 19 | 165 | 6.4 | 11.3 | 0.00 | 0.00 | 0.00 | 37 | 1012.6 |
| 20260502202401 | 19 | 186 | 8.0 | 19.3 | 0.00 | 0.00 | 0.00 | 35 | 1012.7 |
| 20260502201855 | 19 | 169 | 8.0 | 19.3 | 0.00 | 0.00 | 0.00 | 37 | 1012.8 |
| 20260502201621 | 19 | 207 | 6.4 | 14.5 | 0.00 | 0.00 | 0.00 | 37 | 1012.9 |
| 20260502200843 | 19 | 174 | 4.8 | 11.3 | 0.00 | 0.00 | 0.00 | 37 | 1013.0 |
| 20260502200337 | 19 | 162 | 6.4 | 12.9 | 0.00 | 0.00 | 0.00 | 37 | 1013.1 |
| 20260502195831 | 18 | 156 | 6.4 | 14.5 | 0.00 | 0.00 | 0.00 | 37 | 1013.2 |
| 20260502195325 | 18 | 174 | 6.4 | 14.5 | 0.00 | 0.00 | 0.00 | 35 | 1013.4 |
| 20260502194819 | 19 | 145 | 6.4 | 14.5 | 0.00 | 0.00 | 0.00 | 38 | 1013.5 |
| 20260502194313 | 19 | 205 | 6.4 | 14.5 | 0.00 | 0.00 | 0.00 | 40 | 1013.5 |
| 20260502193807 | 18 | 239 | 6.4 | 14.5 | 0.00 | 0.00 | 0.00 | 37 | 1013.7 |
| 20260502193533 | 18 | 222 | 6.4 | 17.7 | 0.00 | 0.00 | 0.00 | 37 | 1013.8 |
| 20260502192755 | 18 | 252 | 4.8 | 17.7 | 0.00 | 0.00 | 0.00 | 34 | 1013.9 |
| 20260502192248 | 18 | 208 | 4.8 | 12.9 | 0.00 | 0.00 | 0.00 | 37 | 1014.1 |
| 20260502191743 | 18 | 217 | 6.4 | 14.5 | 0.00 | 0.00 | 0.00 | 40 | 1014.1 |
| 20260502191237 | 18 | 201 | 6.4 | 14.5 | 0.00 | 0.00 | 0.00 | 35 | 1014.3 |
| 20260502190731 | 17 | 257 | 4.8 | 14.5 | 0.00 | 0.00 | 0.00 | 38 | 1014.4 |
| 20260502190455 | 17 | 262 | 6.4 | 16.1 | 0.00 | 0.00 | 0.00 | 36 | 1014.5 |
| 20260502185718 | 17 | 224 | 4.8 | 16.1 | 0.00 | 0.00 | 0.00 | 37 | 1014.6 |
| 20260502185446 | 17 | 169 | 4.8 | 11.3 | 0.00 | 0.00 | 0.00 | 40 | 1014.6 |
| 20260502184707 | 16 | 200 | 4.8 | 11.3 | 0.00 | 0.00 | 0.00 | 38 | 1014.7 |
| 20260502184201 | 17 | 181 | 6.4 | 12.9 | 0.00 | 0.00 | 0.00 | 37 | 1014.8 |
| 20260502183655 | 17 | 203 | 8.0 | 12.9 | 0.00 | 0.00 | 0.00 | 38 | 1014.9 |
| 20260502183149 | 17 | 226 | 8.0 | 14.5 | 0.00 | 0.00 | 0.00 | 36 | 1015.0 |
| 20260502182643 | 16 | 170 | 6.4 | 14.5 | 0.00 | 0.00 | 0.00 | 40 | 1015.1 |
| 20260502182137 | 17 | 136 | 6.4 | 14.5 | 0.00 | 0.00 | 0.00 | 36 | 1015.2 |
| 20260502181631 | 17 | 245 | 6.4 | 14.5 | 0.00 | 0.00 | 0.00 | 38 | 1015.2 |
| 20260502181357 | 17 | 215 | 6.4 | 14.5 | 0.00 | 0.00 | 0.00 | 39 | 1015.3 |
| 20260502180620 | 16 | 207 | 6.4 | 14.5 | 0.00 | 0.00 | 0.00 | 37 | 1015.3 |
| 20260502180614 | 16 | 135 | 6.4 | 14.5 | 0.00 | 0.00 | 0.00 | 36 | 1015.4 |
| 20260502170507 | 15 | 170 | 4.8 | 12.9 | 0.00 | 0.00 | 0.00 | 39 | 1016.4 |
| 20260502163937 | 15 | 167 | 4.8 | 11.3 | 0.00 | 0.00 | 0.00 | 39 | 1016.8 |
| 20260502163704 | 15 | 156 | 4.8 | 12.9 | 0.00 | 0.00 | 0.00 | 42 | 1016.8 |
| 20260502162932 | 15 | 239 | 8.0 | 12.9 | 0.00 | 0.00 | 0.00 | 39 | 1016.9 |
| 20260502162705 | 15 | 200 | 6.4 | 12.9 | 0.00 | 0.00 | 0.00 | 39 | 1016.9 |
| 20260502161933 | 15 | 218 | 6.4 | 11.3 | 0.00 | 0.00 | 0.00 | 39 | 1016.9 |
| 20260502161703 | 15 | 186 | 4.8 | 11.3 | 0.00 | 0.00 | 0.00 | 41 | 1017.0 |
| 20260502161207 | 14 | 192 | 4.8 | 11.3 | 0.00 | 0.00 | 0.00 | 39 | 1017.3 |
| 20260502160433 | 14 | 264 | 4.8 | 12.9 | 0.00 | 0.00 | 0.00 | 39 | 1017.3 |
| 20260502151931 | 13 | 166 | 4.8 | 12.9 | 0.00 | 0.00 | 0.00 | 46 | 1017.7 |
| 20260502151431 | 13 | 210 | 1.6 | 8.0 | 0.00 | 0.00 | 0.00 | 49 | 1017.8 |
| 20260502150926 | 12 | 142 | 1.6 | 8.0 | 0.00 | 0.00 | 0.00 | 51 | 1017.9 |
| 20260502150419 | 12 | 175 | 3.2 | 8.0 | 0.00 | 0.00 | 0.00 | 51 | 1017.9 |
| 20260502130359 | 3 | 172 | 0.0 | 3.2 | 0.00 | 0.00 | 0.00 | 85 | 1018.6 |
| 20260502130126 | 3 | 146 | 0.0 | 1.6 | 0.00 | 0.00 | 0.00 | 90 | 1018.6 |
| 20260502123358 | 0 | 150 | 0.0 | 0.0 | 0.00 | 0.00 | 0.00 | 94 | 1018.6 |
| 20260502122857 | 0 | 150 | 0.0 | 0.0 | 0.00 | 0.00 | 0.00 | 95 | 1018.5 |
| 20260502122358 | 0 | 150 | 0.0 | 0.0 | 0.00 | 0.00 | 0.00 | 95 | 1018.5 |
| 20260502121857 | 0 | 150 | 0.0 | 0.0 | 0.00 | 0.00 | 0.00 | 95 | 1018.5 |
| 20260502121358 | 0 | 150 | 0.0 | 0.0 | 0.00 | 0.00 | 0.00 | 95 | 1018.5 |
| 20260502121128 | 0 | 150 | 0.0 | 0.0 | 0.00 | 0.00 | 0.00 | 95 | 1018.5 |
| 20260502120355 | 0 | 150 | 0.0 | 0.0 | 0.00 | 0.00 | 0.00 | 95 | 1018.5 |
| 20260502115855 | 0 | 150 | 0.0 | 0.0 | 0.00 | 0.00 | 0.00 | 95 | 1018.5 |
| 20260502115354 | -1 | 150 | 0.0 | 0.0 | 0.00 | 0.00 | 0.00 | 95 | 1018.5 |
| 20260502114859 | -1 | 150 | 0.0 | 0.0 | 0.00 | 0.00 | 0.00 | 95 | 1018.5 |
| 20260502114853 | -1 | 150 | 0.0 | 0.0 | 0.00 | 0.00 | 0.00 | 95 | 1018.6 |
| 20260502113853 | -1 | 150 | 0.0 | 0.0 | 0.00 | 0.00 | 0.00 | 95 | 1018.6 |
| 20260502113355 | -1 | 150 | 0.0 | 0.0 | 0.00 | 0.00 | 0.00 | 95 | 1018.5 |
| 20260502112855 | -1 | 150 | 0.0 | 0.0 | 0.00 | 0.00 | 0.00 | 94 | 1018.5 |
| 20260502112349 | -1 | 150 | 0.0 | 0.0 | 0.00 | 0.00 | 0.00 | 94 | 1018.5 |
| 20260502111850 | -1 | 150 | 0.0 | 0.0 | 0.00 | 0.00 | 0.00 | 94 | 1018.4 |
| 20260502111349 | -2 | 150 | 0.0 | 0.0 | 0.00 | 0.00 | 0.00 | 94 | 1018.4 |
| 20260502110849 | -2 | 150 | 0.0 | 0.0 | 0.00 | 0.00 | 0.00 | 94 | 1018.4 |
| 20260502110351 | -2 | 150 | 0.0 | 0.0 | 0.00 | 0.00 | 0.00 | 94 | 1018.4 |
| 20260502105849 | -2 | 150 | 0.0 | 0.0 | 0.00 | 0.00 | 0.00 | 94 | 1018.3 |
| 20260502105625 | -2 | 150 | 0.0 | 0.0 | 0.00 | 0.00 | 0.00 | 94 | 1018.4 |
| 20260502105351 | -2 | 150 | 0.0 | 0.0 | 0.00 | 0.00 | 0.00 | 94 | 1018.3 |
| 20260502104351 | -2 | 150 | 0.0 | 0.0 | 0.00 | 0.00 | 0.00 | 94 | 1018.3 |
| 20260502103846 | -2 | 150 | 0.0 | 0.0 | 0.00 | 0.00 | 0.00 | 94 | 1018.3 |
| 20260502103346 | -2 | 150 | 0.0 | 0.0 | 0.00 | 0.00 | 0.00 | 94 | 1018.3 |
| 20260502102851 | -2 | 150 | 0.0 | 0.0 | 0.00 | 0.00 | 0.00 | 93 | 1018.3 |
| 20260502102846 | -2 | 150 | 0.0 | 0.0 | 0.00 | 0.00 | 0.00 | 93 | 1018.3 |
| 20260502102119 | -2 | 150 | 0.0 | 0.0 | 0.00 | 0.00 | 0.00 | 93 | 1018.3 |
| 20260502101346 | -2 | 150 | 0.0 | 0.0 | 0.00 | 0.00 | 0.00 | 93 | 1018.3 |
| 20260502100847 | -2 | 150 | 0.0 | 0.0 | 0.00 | 0.00 | 0.00 | 93 | 1018.3 |
| 20260502100345 | -2 | 150 | 0.0 | 0.0 | 0.00 | 0.00 | 0.00 | 93 | 1018.3 |
| 20260502100118 | -2 | 150 | 0.0 | 0.0 | 0.00 | 0.00 | 0.00 | 93 | 1018.3 |
| 20260502090839 | -1 | 150 | 0.0 | 0.0 | 0.00 | 0.00 | 0.00 | 93 | 1018.0 |
| 20260502090608 | -1 | 150 | 0.0 | 0.0 | 0.00 | 0.00 | 0.00 | 92 | 1018.0 |
| 20260502071323 | -1 | 150 | 0.0 | 0.0 | 0.00 | 0.00 | 0.00 | 90 | 1018.2 |
| 20260502070821 | 0 | 150 | 0.0 | 0.0 | 0.00 | 0.00 | 0.00 | 90 | 1018.3 |
| 20260502070552 | 0 | 150 | 0.0 | 0.0 | 0.00 | 0.00 | 0.00 | 90 | 1018.3 |
| 20260502065818 | 0 | 150 | 0.0 | 0.0 | 0.00 | 0.00 | 0.00 | 90 | 1018.3 |
| 20260502065321 | 0 | 150 | 0.0 | 0.0 | 0.00 | 0.00 | 0.00 | 90 | 1018.3 |
| 20260502064818 | 0 | 150 | 0.0 | 0.0 | 0.00 | 0.00 | 0.00 | 90 | 1018.4 |
| 20260502064317 | 0 | 150 | 0.0 | 0.0 | 0.00 | 0.00 | 0.00 | 90 | 1018.4 |
| 20260502063814 | 0 | 150 | 0.0 | 0.0 | 0.00 | 0.00 | 0.00 | 89 | 1018.4 |
| 20260502063314 | 0 | 150 | 0.0 | 0.0 | 0.00 | 0.00 | 0.00 | 89 | 1018.5 |
| 20260502062815 | 0 | 150 | 0.0 | 0.0 | 0.00 | 0.00 | 0.00 | 89 | 1018.5 |
| 20260502062544 | 0 | 150 | 0.0 | 0.0 | 0.00 | 0.00 | 0.00 | 88 | 1018.5 |
| 20260502061817 | 0 | 150 | 0.0 | 0.0 | 0.00 | 0.00 | 0.00 | 87 | 1018.5 |
| 20260502061811 | 0 | 150 | 0.0 | 0.0 | 0.00 | 0.00 | 0.00 | 87 | 1018.5 |
| 20260502060814 | 0 | 150 | 0.0 | 0.0 | 0.00 | 0.00 | 0.00 | 87 | 1018.5 |
| 20260502060810 | 0 | 150 | 0.0 | 0.0 | 0.00 | 0.00 | 0.00 | 87 | 1018.5 |
| 20260502055805 | 1 | 150 | 0.0 | 0.0 | 0.00 | 0.00 | 0.00 | 87 | 1018.5 |
| 20260502055259 | 1 | 150 | 0.0 | 0.0 | 0.00 | 0.00 | 0.00 | 88 | 1018.5 |
| 20260502054752 | 0 | 150 | 0.0 | 0.0 | 0.00 | 0.00 | 0.00 | 87 | 1018.5 |
| 20260502054245 | 1 | 150 | 0.0 | 0.0 | 0.00 | 0.00 | 0.00 | 87 | 1018.6 |
| 20260502053739 | 0 | 150 | 0.0 | 0.0 | 0.00 | 0.00 | 0.00 | 87 | 1018.6 |
| 20260502053233 | 0 | 150 | 0.0 | 0.0 | 0.00 | 0.00 | 0.00 | 86 | 1018.6 |
| 20260502052727 | 0 | 150 | 0.0 | 0.0 | 0.00 | 0.00 | 0.00 | 87 | 1018.6 |
| 20260502052453 | 0 | 150 | 0.0 | 0.0 | 0.00 | 0.00 | 0.00 | 87 | 1018.5 |
| 20260502051715 | 0 | 150 | 0.0 | 0.0 | 0.00 | 0.00 | 0.00 | 86 | 1018.5 |
| 20260502051209 | 0 | 150 | 0.0 | 0.0 | 0.00 | 0.00 | 0.00 | 86 | 1018.5 |
| 20260502050936 | 0 | 150 | 0.0 | 0.0 | 0.00 | 0.00 | 0.00 | 85 | 1018.5 |
| 20260502050159 | 0 | 150 | 0.0 | 0.0 | 0.00 | 0.00 | 0.00 | 84 | 1018.6 |
| 20260502045652 | 1 | 150 | 0.0 | 0.0 | 0.00 | 0.00 | 0.00 | 83 | 1018.6 |
| 20260502045145 | 1 | 150 | 0.0 | 0.0 | 0.00 | 0.00 | 0.00 | 84 | 1018.5 |
| 20260502044639 | 1 | 150 | 0.0 | 0.0 | 0.00 | 0.00 | 0.00 | 84 | 1018.5 |
| 20260502044133 | 1 | 151 | 0.0 | 0.0 | 0.00 | 0.00 | 0.00 | 86 | 1018.5 |
| 20260502043629 | 0 | 150 | 0.0 | 0.0 | 0.00 | 0.00 | 0.00 | 84 | 1018.5 |
| 20260502043122 | 0 | 151 | 0.0 | 0.0 | 0.00 | 0.00 | 0.00 | 84 | 1018.5 |
| 20260502042620 | 0 | 151 | 0.0 | 0.0 | 0.00 | 0.00 | 0.00 | 81 | 1018.5 |
| 20260502042117 | 0 | 150 | 0.0 | 0.0 | 0.00 | 0.00 | 0.00 | 81 | 1018.5 |
| 20260502041615 | 1 | 150 | 0.0 | 0.0 | 0.00 | 0.00 | 0.00 | 80 | 1018.5 |
| 20260502041112 | 1 | 150 | 0.0 | 0.0 | 0.00 | 0.00 | 0.00 | 80 | 1018.5 |
| 20260502040611 | 1 | 150 | 0.0 | 0.0 | 0.00 | 0.00 | 0.00 | 80 | 1018.5 |
| 20260502040110 | 1 | 151 | 0.0 | 0.0 | 0.00 | 0.00 | 0.00 | 80 | 1018.5 |
| 20260502035612 | 1 | 151 | 0.0 | 0.0 | 0.00 | 0.00 | 0.00 | 80 | 1018.5 |
| 20260502035108 | 1 | 150 | 0.0 | 0.0 | 0.00 | 0.00 | 0.00 | 79 | 1018.6 |
| 20260502034845 | 2 | 150 | 0.0 | 0.0 | 0.00 | 0.00 | 0.00 | 77 | 1018.6 |
| 20260502034608 | 2 | 150 | 0.0 | 0.0 | 0.00 | 0.00 | 0.00 | 77 | 1018.6 |
| 20260502033602 | 2 | 151 | 0.0 | 0.0 | 0.00 | 0.00 | 0.00 | 76 | 1018.6 |
| 20260502033103 | 2 | 150 | 0.0 | 0.0 | 0.00 | 0.00 | 0.00 | 76 | 1018.6 |
| 20260502032605 | 2 | 150 | 0.0 | 0.0 | 0.00 | 0.00 | 0.00 | 74 | 1018.6 |
| 20260502032100 | 2 | 150 | 0.0 | 0.0 | 0.00 | 0.00 | 0.00 | 74 | 1018.6 |
| 20260502031558 | 3 | 150 | 0.0 | 0.0 | 0.00 | 0.00 | 0.00 | 74 | 1018.5 |
| 20260502031057 | 3 | 150 | 0.0 | 0.0 | 0.00 | 0.00 | 0.00 | 75 | 1018.5 |
| 20260502030600 | 3 | 150 | 0.0 | 0.0 | 0.00 | 0.00 | 0.00 | 72 | 1018.6 |
| 20260502030329 | 3 | 150 | 0.0 | 0.0 | 0.00 | 0.00 | 0.00 | 66 | 1018.5 |
| 20260502025558 | 4 | 150 | 0.0 | 0.0 | 0.00 | 0.00 | 0.00 | 65 | 1018.6 |
| 20260502025057 | 5 | 151 | 0.0 | 0.0 | 0.00 | 0.00 | 0.00 | 65 | 1018.6 |
| 20260502024924 | 5 | 150 | 0.0 | 0.0 | 0.00 | 0.00 | 0.00 | 63 | 1018.5 |
| 20260502024836 | 5 | 150 | 0.0 | 0.0 | 0.00 | 0.00 | 0.00 | 63 | 1018.6 |
| 20260502023539 | 5 | 150 | 0.0 | 0.0 | 0.00 | 0.00 | 0.00 | 61 | 1018.5 |
| 20260502023032 | 5 | 151 | 0.0 | 0.0 | 0.00 | 0.00 | 0.00 | 60 | 1018.5 |
| 20260502022529 | 5 | 150 | 0.0 | 0.0 | 0.00 | 0.00 | 0.00 | 60 | 1018.5 |
| 20260502022030 | 5 | 150 | 0.0 | 0.0 | 0.00 | 0.00 | 0.00 | 60 | 1018.5 |
| 20260502021528 | 5 | 151 | 0.0 | 0.0 | 0.00 | 0.00 | 0.00 | 58 | 1018.4 |
| 20260502021302 | 5 | 150 | 0.0 | 0.0 | 0.00 | 0.00 | 0.00 | 59 | 1018.4 |
| 20260502020528 | 6 | 172 | 0.0 | 0.0 | 0.00 | 0.00 | 0.00 | 57 | 1018.3 |
| 20260502020027 | 6 | 172 | 0.0 | 0.0 | 0.00 | 0.00 | 0.00 | 55 | 1018.3 |
| 20260502015524 | 6 | 172 | 0.0 | 0.0 | 0.00 | 0.00 | 0.00 | 54 | 1018.2 |
| 20260502015255 | 6 | 172 | 0.0 | 0.0 | 0.00 | 0.00 | 0.00 | 54 | 1018.2 |
| 20260502014522 | 7 | 172 | 0.0 | 0.0 | 0.00 | 0.00 | 0.00 | 53 | 1018.1 |
| 20260502014023 | 7 | 172 | 0.0 | 0.0 | 0.00 | 0.00 | 0.00 | 51 | 1018.0 |
| 20260502013522 | 7 | 172 | 0.0 | 0.0 | 0.00 | 0.00 | 0.00 | 52 | 1018.0 |
| 20260502013255 | 7 | 172 | 0.0 | 0.0 | 0.00 | 0.00 | 0.00 | 52 | 1017.9 |
| 20260502012520 | 7 | 172 | 0.0 | 0.0 | 0.00 | 0.00 | 0.00 | 49 | 1017.9 |
| 20260502012021 | 8 | 172 | 0.0 | 0.0 | 0.00 | 0.00 | 0.00 | 50 | 1017.9 |
| 20260502011519 | 8 | 172 | 0.0 | 0.0 | 0.00 | 0.00 | 0.00 | 50 | 1017.9 |
| 20260502011022 | 8 | 172 | 0.0 | 1.6 | 0.00 | 0.00 | 0.00 | 48 | 1017.9 |
| 20260502010517 | 9 | 172 | 0.0 | 1.6 | 0.00 | 0.00 | 0.00 | 48 | 1017.9 |
| 20260502010017 | 9 | 160 | 0.0 | 1.6 | 0.00 | 0.00 | 0.00 | 46 | 1017.9 |
| 20260502005517 | 10 | 158 | 0.0 | 0.0 | 0.00 | 0.00 | 0.00 | 45 | 1017.8 |
| 20260502005243 | 10 | 149 | 0.0 | 0.0 | 0.00 | 0.00 | 0.00 | 44 | 1017.8 |
| 20260502004505 | 11 | 136 | 0.0 | 0.0 | 0.00 | 0.00 | 0.00 | 41 | 1017.8 |
| 20260502004232 | 11 | 158 | 0.0 | 1.6 | 0.00 | 0.00 | 0.00 | 39 | 1017.8 |
| 20260502003455 | 11 | 166 | 0.0 | 1.6 | 0.00 | 0.00 | 0.00 | 36 | 1017.7 |
| 20260502002947 | 11 | 156 | 0.0 | 0.0 | 0.00 | 0.00 | 0.00 | 37 | 1017.8 |
| 20260502002441 | 11 | 51 | 0.0 | 0.0 | 0.00 | 0.00 | 0.00 | 37 | 1017.9 |
| 20260502001935 | 11 | 167 | 0.0 | 0.0 | 0.00 | 0.00 | 0.00 | 40 | 1017.9 |
| 20260502001700 | 11 | 153 | 0.0 | 0.0 | 0.00 | 0.00 | 0.00 | 41 | 1017.9 |
| 20260502000923 | 11 | 154 | 0.0 | 0.0 | 0.00 | 0.00 | 0.00 | 39 | 1017.9 |
| 20260502000417 | 11 | 169 | 0.0 | 0.0 | 0.00 | 0.00 | 0.00 | 40 | 1017.9 |
| 20260501235911 | 12 | 105 | 0.0 | 3.2 | 0.00 | 0.00 | 0.00 | 35 | 1017.9 |
| 20260501235404 | 12 | 359 | 0.0 | 3.2 | 0.00 | 0.00 | 0.00 | 33 | 1017.9 |
| 20260501234859 | 12 | 354 | 0.0 | 3.2 | 0.00 | 0.00 | 0.00 | 31 | 1017.9 |
| 20260501234356 | 12 | 351 | 0.0 | 3.2 | 0.00 | 0.00 | 0.00 | 32 | 1017.9 |